TimeCDT,TemperatureF,Dew PointF,Humidity,Sea Level PressureIn,VisibilityMPH,Wind Direction,Wind SpeedMPH,Gust SpeedMPH,PrecipitationIn,Events,Conditions,WindDirDegrees,DateUTC
12:00 AM,19.4,14.0,80,29.99,15.0,Calm,Calm,-,N/A,,Mostly Cloudy,0,2013-09-14 05:00:00
1:00 AM,18,14,78,30.00,15,West,2.3,,,,Scattered Clouds,270,2013-09-14 06:00:00
1:00 AM,17.6,14.0,86,30.00,15.0,West,3.5,-,N/A,,Mostly Cloudy,280,2013-09-14 06:00:00
2:00 AM,19.4,14.0,80,30.00,15.0,ENE,3.5,-,N/A,,Partly Cloudy,60,2013-09-14 07:00:00
3:00 AM,17.6,10.4,73,30.01,15.0,North,8.1,-,N/A,,Partly Cloudy,360,2013-09-14 08:00:00
4:00 AM,19.4,10.4,68,30.03,15.0,North,3.5,-,N/A,,Partly Cloudy,10,2013-09-14 09:00:00
5:00 AM,14.0,10.4,86,30.04,15.0,NE,3.5,-,N/A,,Partly Cloudy,40,2013-09-14 10:00:00
6:00 AM,14.0,8.6,79,30.05,15.0,SSE,3.5,-,N/A,,Partly Cloudy,160,2013-09-14 11:00:00
7:00 AM,13,9,78,30.05,15,ESE,3.5,,,,Scattered Clouds,110,2013-09-14 12:00:00
7:00 AM,14.0,8.6,79,30.05,15.0,ESE,3.5,-,N/A,,Partly Cloudy,110,2013-09-14 12:00:00
8:00 AM,12.2,6.8,79,30.06,15.0,East,2.3,-,N/A,,Partly Cloudy,90,2013-09-14 13:00:00
9:00 AM,12.2,8.6,85,30.06,15.0,Calm,Calm,-,N/A,,Partly Cloudy,0,2013-09-14 14:00:00
10:00 AM,10.4,6.8,85,30.07,15.0,Calm,Calm,-,N/A,,Partly Cloudy,0,2013-09-14 15:00:00
11:00 AM,10.4,6.8,85,30.08,15.0,Calm,Calm,-,N/A,,Clear,0,2013-09-14 16:00:00
12:00 PM,12.2,8.6,85,30.08,15.0,Calm,Calm,-,N/A,,Clear,0,2013-09-14 17:00:00
1:00 PM,12,8,78,30.09,15,Calm,Calm,,,,Scattered Clouds,,2013-09-14 18:00:00
1:00 PM,12.2,8.6,85,30.09,15.0,Calm,Calm,-,N/A,,Partly Cloudy,0,2013-09-14 18:00:00
2:00 PM,12.2,8.6,85,30.10,15.0,Calm,Calm,-,N/A,,Clear,0,2013-09-14 19:00:00
3:00 PM,14.0,10.4,86,30.11,15.0,Calm,Calm,-,N/A,,Clear,0,2013-09-14 20:00:00
4:00 PM,14.0,10.4,86,30.11,15.0,Calm,Calm,-,N/A,,Clear,0,2013-09-14 21:00:00
5:00 PM,14.0,10.4,86,30.12,15.0,Calm,Calm,-,N/A,,Clear,0,2013-09-14 22:00:00
6:00 PM,12.2,8.6,85,30.12,15.0,SE,3.5,-,N/A,,Partly Cloudy,130,2013-09-14 23:00:00
7:00 PM,13,9,77,30.13,15,SE,2.3,,,,Scattered Clouds,130,2013-09-15 00:00:00
7:00 PM,12.2,8.6,85,30.13,15.0,ESE,2.3,-,N/A,,Partly Cloudy,120,2013-09-15 00:00:00
8:00 PM,12.2,8.6,85,30.14,15.0,East,2.3,-,N/A,,Partly Cloudy,80,2013-09-15 01:00:00
9:00 PM,10.4,6.8,85,30.14,15.0,Calm,Calm,-,N/A,,Partly Cloudy,0,2013-09-15 02:00:00
10:00 PM,10.4,6.8,85,30.15,15.0,SE,3.5,-,N/A,,Partly Cloudy,130,2013-09-15 03:00:00
11:00 PM,8.6,5.0,85,30.16,15.0,ESE,2.3,-,N/A,,Partly Cloudy,120,2013-09-15 04:00:00